Time,TemperatureF,DewpointF,PressureIn,WindDirection,WindDirectionDegrees,WindSpeedMPH,WindSpeedGustMPH,Humidity,HourlyPrecipIn,Conditions,Clouds,dailyrainin,SoftwareType,DateUTC
2013-01-04 00:07:00,21.6,17.8,29.94,West,270,1.1,-999.0,85,-99.99,,,0.00,Acu-Link.com,2013-01-04 05:07:00,
2013-01-04 00:23:00,22.6,21.9,29.93,South,180,0.0,-999.0,97,-99.99,,,0.00,Acu-Link.com,2013-01-04 05:23:00,
2013-01-04 00:38:00,21.4,20.4,29.93,West,270,2.2,-999.0,96,-99.99,,,0.00,Acu-Link.com,2013-01-04 05:38:00,
2013-01-04 00:53:00,20.5,16.4,29.92,WSW,247,2.2,-999.0,84,-99.99,,,0.00,Acu-Link.com,2013-01-04 05:53:00,
2013-01-04 01:08:00,20.7,17.9,29.92,SSW,202,0.0,-999.0,89,-99.99,,,0.00,Acu-Link.com,2013-01-04 06:08:00,
2013-01-04 01:24:00,22.1,21.6,29.92,SW,225,0.0,-999.0,98,-99.99,,,0.00,Acu-Link.com,2013-01-04 06:24:00,
2013-01-04 01:39:00,28.4,27.9,29.92,West,270,0.0,-999.0,98,-99.99,,,0.00,Acu-Link.com,2013-01-04 06:39:00,
2013-01-04 01:54:00,20.1,19.6,29.92,West,270,1.6,-999.0,98,-99.99,,,0.00,Acu-Link.com,2013-01-04 06:54:00,
2013-01-04 02:10:00,19.9,18.7,29.92,WSW,247,0.0,-999.0,95,-99.99,,,0.00,Acu-Link.com,2013-01-04 07:10:00,
2013-01-04 02:25:00,20.3,18.9,29.92,SW,225,1.1,-999.0,94,-99.99,,,0.00,Acu-Link.com,2013-01-04 07:25:00,
2013-01-04 02:40:00,20.8,19.9,29.92,SSW,202,4.7,-999.0,96,-99.99,,,0.00,Acu-Link.com,2013-01-04 07:40:00,
2013-01-04 02:56:00,20.1,18.7,29.92,SW,225,0.0,-999.0,94,-99.99,,,0.00,Acu-Link.com,2013-01-04 07:56:00,
2013-01-04 03:11:00,20.5,20.0,29.91,SW,225,0.0,-999.0,98,-99.99,,,0.00,Acu-Link.com,2013-01-04 08:11:00,
2013-01-04 03:26:00,29.5,29.0,29.91,SE,135,0.0,-999.0,98,-99.99,,,0.00,Acu-Link.com,2013-01-04 08:26:00,
2013-01-04 03:41:00,21.4,20.9,29.91,WNW,292,1.1,-999.0,98,-99.99,,,0.00,Acu-Link.com,2013-01-04 08:41:00,
2013-01-04 03:57:00,20.1,19.6,29.90,WSW,247,0.0,-999.0,98,-99.99,,,0.00,Acu-Link.com,2013-01-04 08:57:00,
2013-01-04 04:12:00,20.5,20.0,29.89,NNW,337,0.0,-999.0,98,-99.99,,,0.00,Acu-Link.com,2013-01-04 09:12:00,
2013-01-04 04:27:00,19.9,19.5,29.88,SW,225,0.0,-999.0,98,-99.99,,,0.00,Acu-Link.com,2013-01-04 09:27:00,
2013-01-04 04:42:00,20.1,19.6,29.89,SSW,202,2.2,-999.0,98,-99.99,,,0.00,Acu-Link.com,2013-01-04 09:42:00,
2013-01-04 04:58:00,19.9,19.5,29.90,SW,225,0.0,-999.0,98,-99.99,,,0.00,Acu-Link.com,2013-01-04 09:58:00,
2013-01-04 05:13:00,24.4,24.0,29.90,WNW,292,0.0,-999.0,98,-99.99,,,0.00,Acu-Link.com,2013-01-04 10:13:00,
2013-01-04 05:28:00,23.7,23.2,29.90,SSW,202,0.0,-999.0,98,-99.99,,,0.00,Acu-Link.com,2013-01-04 10:28:00,
2013-01-04 05:44:00,21.0,20.5,29.90,West,270,3.1,-999.0,98,-99.99,,,0.00,Acu-Link.com,2013-01-04 10:44:00,
2013-01-04 05:59:00,20.8,20.4,29.89,SSW,202,0.0,-999.0,98,-99.99,,,0.00,Acu-Link.com,2013-01-04 10:59:00,
2013-01-04 06:14:00,20.7,20.2,29.90,SW,225,1.6,-999.0,98,-99.99,,,0.00,Acu-Link.com,2013-01-04 11:14:00,
2013-01-04 06:29:00,21.2,20.7,29.90,West,270,3.8,-999.0,98,-99.99,,,0.00,Acu-Link.com,2013-01-04 11:29:00,
2013-01-04 06:44:00,21.4,20.9,29.90,SSW,202,0.0,-999.0,98,-99.99,,,0.00,Acu-Link.com,2013-01-04 11:44:00,
2013-01-04 07:00:00,24.6,24.1,29.91,West,270,3.1,-999.0,98,-99.99,,,0.00,Acu-Link.com,2013-01-04 12:00:00,
2013-01-04 07:15:00,25.3,24.9,29.90,SW,225,2.7,-999.0,98,-99.99,,,0.00,Acu-Link.com,2013-01-04 12:15:00,
2013-01-04 07:30:00,23.2,22.7,29.91,West,270,3.8,-999.0,98,-99.99,,,0.00,Acu-Link.com,2013-01-04 12:30:00,
2013-01-04 07:46:00,24.4,24.0,29.91,WSW,247,4.3,-999.0,98,-99.99,,,0.00,Acu-Link.com,2013-01-04 12:46:00,
2013-01-04 08:01:00,26.1,25.6,29.91,WSW,247,4.3,-999.0,98,-99.99,,,0.00,Acu-Link.com,2013-01-04 13:01:00,
2013-01-04 08:16:00,27.5,27.0,29.91,WNW,292,3.8,-999.0,98,-99.99,,,0.00,Acu-Link.com,2013-01-04 13:16:00,
2013-01-04 08:32:00,28.4,27.2,29.91,SW,225,4.3,-999.0,95,-99.99,,,0.00,Acu-Link.com,2013-01-04 13:32:00,
2013-01-04 08:47:00,29.1,27.4,29.91,SSW,202,2.2,-999.0,93,-99.99,,,0.00,Acu-Link.com,2013-01-04 13:47:00,
2013-01-04 09:02:00,36.0,35.5,29.91,South,180,4.7,-999.0,98,-99.99,,,0.00,Acu-Link.com,2013-01-04 14:02:00,
2013-01-04 09:17:00,31.1,28.5,29.90,West,270,4.3,-999.0,90,-99.99,,,0.00,Acu-Link.com,2013-01-04 14:17:00,
2013-01-04 09:33:00,31.6,27.7,29.90,SW,225,3.1,-999.0,85,-99.99,,,0.00,Acu-Link.com,2013-01-04 14:33:00,
2013-01-04 09:48:00,33.3,27.5,29.90,NW,315,4.7,-999.0,79,-99.99,,,0.00,Acu-Link.com,2013-01-04 14:48:00,
2013-01-04 10:03:00,34.5,27.1,29.90,SW,225,7.8,-999.0,74,-99.99,,,0.00,Acu-Link.com,2013-01-04 15:03:00,
2013-01-04 10:19:00,35.6,26.1,29.89,WSW,247,6.7,-999.0,68,-99.99,,,0.00,Acu-Link.com,2013-01-04 15:19:00,
2013-01-04 10:34:00,36.1,25.9,29.88,West,270,3.1,-999.0,66,-99.99,,,0.00,Acu-Link.com,2013-01-04 15:34:00,
2013-01-04 10:49:00,35.8,25.6,29.88,WSW,247,2.7,-999.0,66,-99.99,,,0.00,Acu-Link.com,2013-01-04 15:49:00,
2013-01-04 11:04:00,36.3,25.3,29.87,West,270,8.9,-999.0,64,-99.99,,,0.00,Acu-Link.com,2013-01-04 16:04:00,
2013-01-04 11:20:00,37.6,25.4,29.85,SSW,202,4.7,-999.0,61,-99.99,,,0.00,Acu-Link.com,2013-01-04 16:20:00,
2013-01-04 11:35:00,39.4,25.4,29.84,WNW,292,11.4,-999.0,57,-99.99,,,0.00,Acu-Link.com,2013-01-04 16:35:00,
2013-01-04 11:50:00,38.5,24.2,29.83,SSW,202,11.0,-999.0,56,-99.99,,,0.00,Acu-Link.com,2013-01-04 16:50:00,
2013-01-04 12:05:00,39.4,24.6,29.81,SSW,202,8.3,-999.0,55,-99.99,,,0.00,Acu-Link.com,2013-01-04 17:05:00,
2013-01-04 12:21:00,39.0,24.2,29.80,West,270,7.8,-999.0,55,-99.99,,,0.01,Acu-Link.com,2013-01-04 17:21:00,
2013-01-04 12:36:00,39.2,24.4,29.79,NW,315,6.7,-999.0,55,-99.99,,,0.01,Acu-Link.com,2013-01-04 17:36:00,
2013-01-04 12:51:00,40.3,25.0,29.79,West,270,5.1,-999.0,54,-99.99,,,0.01,Acu-Link.com,2013-01-04 17:51:00,
2013-01-04 13:07:00,40.1,24.8,29.77,West,270,9.8,-999.0,54,-99.99,,,0.01,Acu-Link.com,2013-01-04 18:07:00,
2013-01-04 13:22:00,40.8,25.0,29.76,SSW,202,14.1,-999.0,53,-99.99,,,0.01,Acu-Link.com,2013-01-04 18:22:00,
2013-01-04 13:37:00,41.0,24.7,29.76,NW,315,8.9,-999.0,52,-99.99,,,0.01,Acu-Link.com,2013-01-04 18:37:00,
2013-01-04 13:53:00,40.1,24.8,29.76,West,270,5.1,-999.0,54,-99.99,,,0.01,Acu-Link.com,2013-01-04 18:53:00,
2013-01-04 14:08:00,39.7,24.9,29.76,South,180,6.7,-999.0,55,-99.99,,,0.01,Acu-Link.com,2013-01-04 19:08:00,
2013-01-04 14:23:00,38.8,25.3,29.76,SW,225,9.8,-999.0,58,-99.99,,,0.01,Acu-Link.com,2013-01-04 19:23:00,
2013-01-04 14:38:00,40.5,35.1,29.76,North,0,1.1,-999.0,81,-99.99,,,0.01,Acu-Link.com,2013-01-04 19:38:00,
2013-01-04 14:54:00,38.8,28.5,29.76,SW,225,5.8,-999.0,66,-99.99,,,0.01,Acu-Link.com,2013-01-04 19:54:00,
2013-01-04 15:09:00,38.5,28.5,29.76,West,270,3.8,-999.0,67,-99.99,,,0.01,Acu-Link.com,2013-01-04 20:09:00,
2013-01-04 15:24:00,37.9,28.3,29.76,WNW,292,7.4,-999.0,68,-99.99,,,0.01,Acu-Link.com,2013-01-04 20:24:00,
2013-01-04 15:40:00,37.8,28.9,29.77,SSW,202,2.7,-999.0,70,-99.99,,,0.01,Acu-Link.com,2013-01-04 20:40:00,
2013-01-04 15:55:00,37.4,28.9,29.77,SSW,202,5.8,-999.0,71,-99.99,,,0.01,Acu-Link.com,2013-01-04 20:55:00,
2013-01-04 16:10:00,37.0,29.2,29.77,West,270,4.7,-999.0,73,-99.99,,,0.01,Acu-Link.com,2013-01-04 21:10:00,
2013-01-04 16:25:00,36.7,29.2,29.77,SE,135,5.1,-999.0,74,-99.99,,,0.01,Acu-Link.com,2013-01-04 21:25:00,
2013-01-04 16:41:00,36.5,29.3,29.77,South,180,6.7,-999.0,75,-99.99,,,0.01,Acu-Link.com,2013-01-04 21:41:00,
2013-01-04 16:56:00,36.1,29.3,29.77,WNW,292,5.8,-999.0,76,-99.99,,,0.01,Acu-Link.com,2013-01-04 21:56:00,
2013-01-04 17:11:00,36.0,29.1,29.77,SW,225,3.1,-999.0,76,-99.99,,,0.01,Acu-Link.com,2013-01-04 22:11:00,
2013-01-04 17:26:00,36.0,29.1,29.77,SSW,202,3.1,-999.0,76,-99.99,,,0.01,Acu-Link.com,2013-01-04 22:26:00,
2013-01-04 17:42:00,36.0,29.1,29.78,NW,315,9.4,-999.0,76,-99.99,,,0.01,Acu-Link.com,2013-01-04 22:42:00,
2013-01-04 17:57:00,37.0,34.1,29.77,SSW,202,3.1,-999.0,89,-99.99,,,0.01,Acu-Link.com,2013-01-04 22:57:00,
2013-01-04 18:12:00,36.3,30.1,29.78,South,180,2.7,-999.0,78,-99.99,,,0.01,Acu-Link.com,2013-01-04 23:12:00,
2013-01-04 18:28:00,36.1,31.8,29.78,South,180,0.0,-999.0,84,-99.99,,,0.01,Acu-Link.com,2013-01-04 23:28:00,
2013-01-04 18:43:00,35.4,29.6,29.78,SW,225,4.3,-999.0,79,-99.99,,,0.01,Acu-Link.com,2013-01-04 23:43:00,
2013-01-04 18:58:00,35.1,30.1,29.78,WNW,292,0.0,-999.0,82,-99.99,,,0.01,Acu-Link.com,2013-01-04 23:58:00,
2013-01-04 19:14:00,34.5,29.6,29.78,SW,225,1.1,-999.0,82,-99.99,,,0.01,Acu-Link.com,2013-01-05 00:14:00,
2013-01-04 19:29:00,34.0,29.7,29.79,SSW,202,3.1,-999.0,84,-99.99,,,0.01,Acu-Link.com,2013-01-05 00:29:00,
2013-01-04 19:44:00,33.6,30.2,29.79,South,180,0.0,-999.0,87,-99.99,,,0.01,Acu-Link.com,2013-01-05 00:44:00,
2013-01-04 19:59:00,33.1,29.9,29.79,SSW,202,4.7,-999.0,88,-99.99,,,0.01,Acu-Link.com,2013-01-05 00:59:00,
2013-01-04 20:14:00,32.5,30.5,29.79,SW,225,0.0,-999.0,92,-99.99,,,0.01,Acu-Link.com,2013-01-05 01:14:00,
2013-01-04 20:30:00,32.2,31.2,29.80,West,270,0.0,-999.0,96,-99.99,,,0.01,Acu-Link.com,2013-01-05 01:30:00,
2013-01-04 20:45:00,32.5,32.0,29.79,SSE,157,1.1,-999.0,98,-99.99,,,0.01,Acu-Link.com,2013-01-05 01:45:00,
2013-01-04 21:00:00,32.2,31.7,29.79,SW,225,1.1,-999.0,98,-99.99,,,0.01,Acu-Link.com,2013-01-05 02:00:00,
2013-01-04 21:15:00,31.3,30.8,29.79,South,180,0.0,-999.0,98,-99.99,,,0.01,Acu-Link.com,2013-01-05 02:15:00,
2013-01-04 21:31:00,31.5,31.0,29.80,SSW,202,4.3,-999.0,98,-99.99,,,0.01,Acu-Link.com,2013-01-05 02:31:00,
2013-01-04 21:46:00,31.3,30.8,29.80,WSW,247,0.0,-999.0,98,-99.99,,,0.01,Acu-Link.com,2013-01-05 02:46:00,
2013-01-04 22:01:00,31.1,29.8,29.80,South,180,2.2,-999.0,95,-99.99,,,0.01,Acu-Link.com,2013-01-05 03:01:00,
2013-01-04 22:17:00,31.3,30.3,29.80,SW,225,0.0,-999.0,96,-99.99,,,0.01,Acu-Link.com,2013-01-05 03:17:00,
2013-01-04 22:32:00,31.6,29.6,29.81,SW,225,4.3,-999.0,92,-99.99,,,0.01,Acu-Link.com,2013-01-05 03:32:00,
2013-01-04 22:47:00,36.1,35.4,29.81,WNW,292,0.0,-999.0,97,-99.99,,,0.01,Acu-Link.com,2013-01-05 03:47:00,
2013-01-04 23:02:00,33.1,31.5,29.81,West,270,4.7,-999.0,94,-99.99,,,0.01,Acu-Link.com,2013-01-05 04:02:00,
2013-01-04 23:18:00,32.9,30.0,29.80,SSW,202,7.4,-999.0,89,-99.99,,,0.01,Acu-Link.com,2013-01-05 04:18:00,
2013-01-04 23:33:00,31.8,29.0,29.80,West,270,0.0,-999.0,89,-99.99,,,0.01,Acu-Link.com,2013-01-05 04:33:00,
2013-01-04 23:48:00,31.5,28.6,29.80,SSW,202,2.2,-999.0,89,-99.99,,,0.01,Acu-Link.com,2013-01-05 04:48:00,